Regional Weather Roundup
Issued by NWS

Home | Current Version | Previous Version | Graphics & Text | Print | Product List | Glossary On
Versions: 1 2 3 4 5 6 7 8 9 10 11 12 13 14 15 16 17 18 19 20 21 22 23 24 25 26 27
000
ASUS45 KPSR 252310
RWRAZ

ARIZONA HOURLY REGIONAL WEATHER ROUNDUP
NATIONAL WEATHER SERVICE PHOENIX AZ
400 PM MST TUE APR 25 2017

NOTE: FAIR INDICATES FEW OR NO CLOUDS BELOW 12,000 FEET WITH NO
SIGNIFICANT WEATHER AND/OR OBSTRUCTIONS TO VISIBILITY.

AZZ001>003-036-260000-
NORTHWEST ARIZONA

CITY           SKY/WX    TMP DP  RH WIND       PRES   REMARKS
BULLHEAD CITY  SUNNY     84  14   7 N15G21    29.68S
KINGMAN        SUNNY     72  19  13 NW15G24   29.81F
$$

AZZ004>008-015-016-018-260000-
NORTH CENTRAL ARIZONA

CITY           SKY/WX    TMP DP  RH WIND       PRES   REMARKS
GRAND CANYON   MOSUNNY   55  17  22 NW12G23   29.83S
WILLIAMS       SUNNY     57  12  17 NW20G28   29.84S
PRESCOTT       SUNNY     68   6   9 W24G37    29.78F
FLAGSTAFF      SUNNY     55   7  14 W16G36    29.82R
PAYSON         MOSUNNY   68  30  24 SW15G24   29.78S
PAGE           MOSUNNY   63  20  19 NW16G23   29.74R
$$

AZZ009>014-017-260000-
NORTHEAST ARIZONA

CITY           SKY/WX    TMP DP  RH WIND       PRES   REMARKS
WINSLOW        SUNNY     73   7   7 W28G40    29.68R
SAINT JOHNS    PTSUNNY   62  34  35 W30G39    29.66S
WINDOW ROCK    MOSUNNY   55  33  43 N15G28    29.70R
SHOW LOW       MOSUNNY   57  28  33 SW25G38   29.77R
$$

AZZ540-542>544-546-548-260000-
GREATER PHOENIX AREA

CITY           SKY/WX    TMP DP  RH WIND       PRES   REMARKS
PHOENIX        MOSUNNY   87  33  14 W17G26    29.61F
BUCKEYE        SUNNY     86  25  10 W20G32    29.64F
GLENDALE       PTSUNNY   88  34  14 S22G32    29.63F
LUKE AFB       SUNNY     87  30  12 W15G26    29.61F
DEER VALLEY    SUNNY     86  21   9 W25G35    29.61F
SCOTTSDALE     SUNNY     84  34  16 SW17G28   29.64F
MESA-FALCON    MOSUNNY  N/A N/A N/A SW14G23   29.64F
MESA-GATEWAY   MOSUNNY   82  36  18 SW16G24   29.66F
CHANDLER       SUNNY     84  34  16 SW16G25   29.64F
$$

AZZ539-553-260000-
SOUTHWEST MARICOPA COUNTY AND PINAL COUNTY

CITY           SKY/WX    TMP DP  RH WIND       PRES   REMARKS
CASA GRANDE    SUNNY     83  37  19 SW17      29.67F
GILA BEND      MOSUNNY   85  33  15 W12       29.65F
$$

AZZ503-504-507>509-260000-
SOUTHEAST ARIZONA

CITY           SKY/WX    TMP DP  RH WIND       PRES   REMARKS
TUCSON         CLOUDY    79  42  26 W16G29    29.74F
DAVIS-MONTHAN  PTSUNNY   78  42  28 W18G26    29.72F
RYAN FIELD     MOSUNNY   81  43  26 W18       29.73F
NOGALES        PTSUNNY   74  37  26 W18G29    29.80F
SIERRA VISTA   PTSUNNY   72  34  25 W20G33    29.81F
DOUGLAS        CLOUDY    76  36  23 W28G37    29.77R
SAFFORD        PTSUNNY   78  37  22 W30G44    29.64F
$$

AZZ532-260000-
SOUTHWEST ARIZONA

CITY           SKY/WX    TMP DP  RH WIND       PRES   REMARKS
YUMA           PTSUNNY   85  39  19 W15       29.69F
$$

CAZ041-043-047-048-061-525>527-560>570-260000-
SOUTHERN CALIFORNIA

CITY           SKY/WX    TMP DP  RH WIND       PRES   REMARKS
DOWNTOWN L.A.  PTSUNNY   76  44  32 VRB7G21   29.84F
L.A. AIRPORT   MOSUNNY   67  52  58 W22       29.87F
SAN DIEGO      PTSUNNY   68  54  60 NW10      29.92S
BURBANK        PTSUNNY   75  30  19 N14G23    29.86S
ONTARIO        CLOUDY    70  43  37 SW15      29.86F
RIVERSIDE      MOSUNNY   72  44  36 W14G20    29.86F
PALM SPRINGS   PTSUNNY   83  44  25 NW15      29.76F
EL CENTRO NAS  CLOUDY    85  35  16 W14       29.73S
IMPERIAL       CLOUDY    85  37  18 NW6       29.70F
BLYTHE         MOSUNNY   86  28  12 NW14      29.70F
NEEDLES        MOSUNNY   89  11   5 N16G25    29.69S
$$

NVZ020-UTZ003-260000-
SOUTHERN NEVADA-UTAH

CITY           SKY/WX    TMP DP  RH WIND       PRES   REMARKS
LAS VEGAS      MOSUNNY   77  15   9 NE10G21   29.74F
SALT LAKE CITY PTSUNNY   51  38  60 W13G21    29.88R
$$

NMZ009-TXZ055-260000-
NEW MEXICO-WEST TEXAS

CITY           SKY/WX    TMP DP  RH WIND       PRES   REMARKS
ALBUQUERQUE    PTSUNNY   57  44  62 SW3       29.62F
EL PASO        MOSUNNY   84  23  10 W22G47    29.57S
$$


........................KEY........................
SKY/WX - SKY CONDITION/WEATHER
TMP    - TEMPERATURE IN FAHRENHEIT
DP     - DEW POINT IN FAHRENHEIT
RH     - RELATIVE HUMIDITY IN PERCENT
WIND   - DIRECTION AND SPEED IN MILES PER HOUR (MPH)
VRB    - VARIABLE WIND DIRECTION
PRES   - MEAN SEA LEVEL PRESSURE IN INCHES OF MERCURY
         F - FALLING PRESSURE   R - RISING PRESSURE
         S - STEADY PRESSURE
VSB    - VISIBILITY IN MILES
HX     - HEAT INDEX IN FAHRENHEIT
WCI    - WIND CHILL INDEX IN FAHRENHEIT
TC     - TEMPERATURE IN CELSIUS WHICH IS ALSO KNOWN AS
         TEMPERATURE IN CENTIGRADE
AFB    - AIR FORCE BASE
         LUKE AFB IS LUKE AIR FORCE BASE
         DAVIS-MONTHAN IS DAVIS-MONTHAN AIR FORCE BASE
NAS    - NAVAL AIR STATION
         EL CENTRO NAS IS EL CENTRO NAVAL AIR STATION
N/A    - NOT AVAILABLE





USA.gov is the U.S. government's official web portal to all federal, state and local government web resources and services.